Cloud_Cover
89 100 100 100 100 100 100 100 99 48 74 100 98 25 55 12 5 0 4 0 0 0 33 0 4 3 0 1 5 10 100 96 2 89 100 98 100 100 100 100 99 17 50 100 100
96 100 100 100 100 100 100 100 100 54 59 93 100 100 97 5 5 2 0 0 2 56 35 4 0 1 5 5 5 48 98 36 3 14 100 100 100 100 100 100 100 100 87 100 100
88 100 100 100 100 100 100 100 100 100 98 76 100 46 5 11 26 0 3 0 1 6 4 0 0 0 5 5 3 15 37 73 13 1 100 100 93 100 100 100 49 54 99 100 100
100 90 100 100 100 100 100 100 100 100 85 100 98 19 5 35 4 0 0 5 5 0 0 0 0 68 97 50 19 92 5 65 36 32 100 100 100 100 100 97 44 67 78 100 100
100 100 100 100 100 100 100 100 100 99 98 100 60 5 5 42 6 0 4 2 0 0 0 0 0 2 36 96 99 100 38 36 98 33 100 100 100 100 100 100 7 94 100 72 100
100 100 100 100 100 100 100 100 100 98 100 90 61 5 5 16 0 0 2 0 0 0 1 2 3 2 65 70 93 100 99 100 100 100 100 100 100 100 98 100 99 89 64 99 63
100 100 100 100 100 100 100 100 100 98 100 60 27 8 5 5 1 5 5 4 3 5 0 0 2 3 100 100 99 100 100 100 100 100 100 100 100 100 99 100 99 6 39 100 100
100 100 100 100 100 100 100 100 78 100 100 25 5 5 5 0 5 5 5 4 5 5 4 0 3 4 100 100 100 100 100 100 95 100 100 100 100 100 100 100 100 86 83 100 100
100 100 100 100 100 100 100 100 94 100 99 5 5 5 4 3 5 5 5 0 4 5 5 15 5 5 100 100 100 100 78 100 99 98 100 100 100 100 100 100 100 83 66 68 94
100 100 100 100 100 100 91 100 100 100 36 12 5 2 4 5 5 5 2 0 0 1 5 5 5 30 100 100 100 100 89 100 100 94 100 100 100 100 100 100 100 100 100 89 100
100 100 100 100 100 99 100 70 100 100 13 5 5 0 5 5 12 5 5 5 4 5 99 12 5 28 100 100 100 100 100 100 100 100 100 100 100 100 100 100 100 100 100 100 100
100 100 100 100 100 100 74 100 100 66 21 7 4 5 5 84 48 5 4 5 5 16 99 49 5 35 100 100 100 100 100 100 100 100 100 100 100 100 100 100 100 100 100 99 100
100 100 100 100 100 87 96 100 100 72 9 5 5 5 44 25 20 5 4 8 6 29 38 25 4 91 100 100 100 100 81 100 100 98 100 100 100 100 100 100 100 100 71 89 89
100 100 100 100 100 97 100 100 85 100 7 3 5 5 32 8 5 5 5 5 96 6 6 7 98 100 100 100 97 100 100 91 100 100 100 100 100 100 100 100 100 100 100 80 95
100 100 100 100 100 90 100 100 98 54 19 3 5 25 5 32 5 62 5 15 100 47 7 6 100 100 100 100 100 100 100 83 100 100 100 100 100 100 100 100 100 100 86 31 98
100 100 100 100 100 100 100 100 97 25 4 4 5 5 72 67 5 5 5 5 42 49 80 69 100 100 100 98 100 100 99 98 100 100 100 100 100 100 100 100 100 100 100 97 85
100 100 100 100 100 100 100 100 98 5 0 4 5 5 97 95 60 8 8 71 93 100 96 100 100 100 100 100 100 100 95 100 100 100 100 100 100 100 100 100 100 100 100 100 100
100 100 100 100 100 100 100 96 19 3 5 3 5 9 99 100 86 52 92 100 100 100 99 100 100 100 100 100 100 100 100 100 100 100 100 100 100 100 100 100 100 100 100 100 100
100 100 100 100 100 100 100 9 5 5 5 3 5 7 94 100 100 71 43 39 92 96 100 100 98 100 100 100 100 100 99 100 100 100 100 100 100 100 100 100 100 100 100 100 100
100 100 100 100 100 100 79 22 5 5 5 5 5 41 65 100 98 90 12 7 45 88 31 100 100 98 100 97 100 100 100 100 26 99 100 100 100 100 100 100 100 100 100 100 100
100 100 100 100 100 100 68 5 5 5 5 5 5 17 38 100 90 99 23 5 5 69 79 14 73 71 100 100 100 100 100 100 73 14 100 100 100 100 100 100 100 100 100 100 100
100 100 100 100 100 75 32 5 5 5 0 3 5 60 85 100 92 58 66 5 5 25 32 10 78 100 100 60 29 100 60 100 98 70 84 99 100 100 100 100 100 100 100 100 99
100 100 100 100 100 100 10 5 5 2 0 2 3 5 18 87 67 78 48 12 5 39 73 100 78 71 7 32 79 100 100 99 94 23 100 97 100 100 100 100 100 100 100 100 100
100 100 100 100 100 100 10 5 5 0 0 0 2 5 18 71 38 26 92 72 43 67 84 96 94 100 87 100 98 68 100 73 32 8 66 47 42 99 100 100 100 100 100 100 100
100 100 100 100 100 100 10 6 3 0 0 0 5 5 5 5 5 5 36 98 98 76 99 100 100 100 100 95 100 100 66 14 5 5 8 12 5 5 91 100 100 100 100 100 100
100 100 100 100 100 100 7 50 5 0 0 0 3 5 5 29 6 5 5 94 80 100 100 94 64 37 61 86 99 23 33 29 36 9 5 5 80 84 100 97 100 100 100 100 9
100 100 100 100 100 94 77 32 5 1 0 0 1 5 5 5 28 84 10 18 20 98 100 100 31 42 26 8 70 13 8 24 87 99 62 52 56 100 97 100 75 93 100 100 100